GFSNE_250_spd_228.txt.gz
Wind_Speed
98 94 90 86 87 88 86 83 79 72 69 68 71 75 79 78 85 88 88 85 86 91 91 91 85 85 86 80 78 76 78 73 71 72 71 71 74 70
93 89 87 89 88 88 86 82 78 76 68 68 70 76 83 85 86 95 91 92 88 87 96 95 90 88 87 82 81 74 68 73 74 72 73 74 77 75
92 91 90 89 87 84 81 77 72 68 63 61 62 74 84 90 89 95 99 95 95 97 95 100 97 92 88 86 83 79 78 77 83 85 86 85 83 84
94 92 91 87 84 78 72 68 66 63 60 58 62 69 83 90 94 96 102 103 102 101 102 102 102 99 99 95 92 92 91 91 90 91 88 87 88 89
98 96 87 81 75 68 65 62 60 57 53 52 58 63 77 83 92 95 101 104 107 105 103 106 106 107 104 98 97 92 91 92 93 94 95 92 97 97
99 91 80 72 67 62 57 53 49 47 45 44 49 54 64 73 84 93 97 104 106 106 107 109 110 109 107 106 106 105 103 100 101 101 102 101 103 104
94 85 74 66 61 55 49 45 43 39 35 35 38 44 51 63 73 86 93 95 104 106 108 112 113 112 113 112 111 110 108 106 106 105 107 107 109 107
85 74 68 61 54 48 43 41 37 33 31 31 33 35 42 49 61 75 86 92 97 102 107 110 111 114 113 113 111 108 107 107 107 108 107 99 93 92
75 69 62 54 48 42 40 36 33 32 30 25 29 31 34 41 50 60 74 86 94 96 99 104 106 107 108 108 106 105 101 98 95 94 90 80 70 65
67 61 53 47 43 37 36 33 31 31 30 24 25 25 27 30 38 49 60 71 80 86 93 95 97 99 97 95 96 95 90 76 67 58 52 47 41 40
60 51 46 41 38 34 32 31 29 27 29 23 22 23 24 26 31 36 42 49 58 66 73 80 82 81 77 71 65 57 53 48 44 42 40 41 42 49
53 45 41 36 34 33 31 30 29 30 29 27 23 24 24 22 22 28 32 36 40 44 48 50 50 48 48 44 40 41 41 42 43 42 41 43 46 51
48 41 37 34 32 32 31 32 32 31 28 30 27 26 25 24 26 26 28 28 29 28 32 38 41 44 41 37 36 38 41 40 42 41 44 50 53 57
44 39 34 33 31 32 33 34 35 35 31 31 32 30 29 29 30 28 29 30 28 26 24 30 37 42 38 40 36 37 41 43 46 50 52 54 57 59
40 36 34 31 30 33 35 38 39 38 34 31 34 37 38 37 36 32 32 32 32 31 32 32 34 41 42 40 40 42 46 49 52 55 58 57 54 56
38 35 31 30 30 33 35 40 42 41 39 34 36 39 39 37 40 39 38 36 35 37 39 38 38 38 39 38 40 42 44 45 47 49 51 52 55 59
36 34 30 30 30 33 35 40 45 45 45 42 39 39 43 43 43 42 43 42 41 40 41 42 42 42 44 43 43 46 49 49 51 53 55 58 62 63
35 33 30 29 30 31 34 39 45 49 49 47 46 42 42 45 48 51 50 49 48 46 47 47 49 52 51 53 55 57 57 58 60 63 62 62 62 60
33 32 30 30 30 31 33 38 42 49 52 50 50 48 50 46 46 47 46 46 48 49 51 52 50 49 50 53 55 58 55 56 59 61 59 56 51 48
33 32 30 29 31 32 33 37 43 51 53 55 53 55 53 52 50 51 53 50 50 49 51 54 53 53 51 46 44 47 50 50 51 50 50 49 48 47
34 32 31 30 31 32 34 36 40 44 51 55 57 58 59 59 59 58 57 58 57 56 55 55 54 48 48 47 47 48 49 49 47 47 49 50 50 49
35 33 32 32 33 32 34 36 40 43 46 51 58 63 64 63 62 60 58 55 53 53 53 49 50 50 49 49 50 49 47 47 48 50 51 50 50 51
36 35 35 33 34 35 35 37 38 43 46 49 53 55 56 57 56 55 56 57 57 56 55 55 55 52 50 49 50 50 49 50 51 51 52 52 53 54

GFSNE_250_spd_231.txt.gz
Wind_Speed
114 120 112 111 105 95 92 87 85 79 78 80 80 78 71 66 66 67 66 70 75 80 79 75 72 74 81 80 77 76 79 72 72 74 71 69 70 69
117 115 117 112 104 100 95 91 86 84 76 77 78 76 73 66 66 67 68 73 73 85 88 84 82 79 80 80 79 75 78 75 73 76 75 71 69 65
124 114 119 106 100 96 91 88 85 77 72 72 66 68 70 64 63 69 72 75 75 84 92 88 84 87 87 85 82 78 79 81 76 77 78 72 74 68
127 120 105 101 98 92 89 82 75 69 63 60 58 56 58 58 57 66 73 78 78 82 94 93 88 89 95 94 89 84 84 83 83 79 79 77 75 73
119 108 105 101 93 89 83 78 68 62 56 54 53 51 52 53 54 61 70 76 81 85 95 101 97 92 93 96 99 94 88 87 86 86 83 79 79 79
115 108 104 98 91 81 75 69 61 55 51 50 49 47 47 49 52 59 66 75 83 85 94 101 102 97 96 99 94 94 97 95 92 88 85 81 79 81
112 105 99 93 83 75 69 61 55 51 47 44 41 40 41 44 49 55 64 70 80 86 93 98 104 102 101 103 100 98 99 97 97 96 96 95 95 94
105 98 89 83 75 70 62 56 51 46 41 37 34 34 36 38 42 49 58 68 76 82 89 99 102 104 105 106 104 106 103 102 101 99 100 101 103 103
97 91 84 72 66 60 57 52 46 39 34 31 28 29 31 33 38 43 50 61 71 80 89 98 103 104 104 103 107 108 105 104 106 106 105 105 105 106
91 82 72 63 59 55 51 45 39 34 29 29 23 25 26 27 30 36 44 54 66 75 83 93 95 103 103 105 106 104 107 108 108 106 106 107 106 107
84 76 63 57 54 50 45 40 34 29 26 26 21 23 24 24 25 29 38 46 57 67 76 84 91 95 100 105 106 107 108 107 107 106 106 104 106 95
77 68 57 54 51 46 40 35 31 26 24 26 20 22 22 20 20 24 31 40 49 59 67 73 81 87 93 96 99 101 103 106 105 100 90 91 89 74
70 61 53 50 46 41 36 31 29 25 25 25 22 21 22 20 21 22 26 31 40 49 55 59 66 74 81 86 89 90 90 90 88 80 65 53 47 42
63 55 51 46 42 38 32 28 27 27 27 27 24 24 23 22 23 22 25 27 30 34 40 45 49 54 59 62 61 54 52 49 48 45 45 43 44 47
57 51 49 42 39 35 30 27 27 28 30 32 27 26 26 25 23 25 25 27 28 28 30 32 32 35 38 40 43 46 43 42 42 41 43 43 44 47
53 49 45 37 35 33 29 27 28 30 32 34 30 27 30 30 27 28 30 28 28 31 32 31 30 30 36 41 45 45 44 43 43 43 44 45 47 50
49 45 40 34 31 31 27 26 28 33 35 38 35 30 32 34 36 35 35 34 30 34 34 33 31 29 30 35 48 47 46 44 45 45 47 48 51 55
45 40 36 33 28 27 26 26 29 33 39 42 41 34 37 39 41 40 41 39 38 40 40 40 40 40 40 43 46 50 50 50 47 47 49 50 52 54
42 36 33 31 28 25 25 25 28 35 40 42 44 43 39 40 40 41 44 43 43 45 48 47 46 46 47 47 47 50 49 51 52 54 54 55 57 59
38 34 31 30 27 25 25 25 28 34 42 47 47 47 46 45 44 46 46 46 48 49 50 49 50 50 52 52 51 53 54 58 62 63 65 65 65 67
35 32 30 29 27 26 25 26 28 34 38 49 54 54 54 53 53 51 50 48 46 45 50 53 53 53 55 57 60 59 61 61 58 58 58 61 65 67
33 32 30 28 27 27 27 28 28 31 39 43 52 57 57 57 58 57 56 55 54 51 51 51 51 53 55 54 56 56 56 56 54 54 54 54 55 56
34 33 31 30 28 28 29 29 30 31 35 40 43 55 59 59 60 61 60 59 59 59 58 59 58 58 57 54 53 51 51 52 51 51 53 53 53 54

GFSNE_250_spd_234.txt.gz
Wind_Speed
105 120 120 119 118 123 126 124 110 98 85 81 76 75 74 71 68 69 69 69 65 64 65 65 67 68 73 76 74 71 71 69 68 65 64 67 65 61
125 124 121 119 121 127 125 123 107 96 88 80 75 69 70 67 63 61 62 64 65 65 68 67 69 69 75 77 76 73 74 74 70 68 71 68 66 63
128 132 119 124 124 127 130 116 98 92 83 76 68 62 59 62 58 55 58 59 60 63 66 68 71 71 77 80 79 78 77 73 73 71 69 70 66 66
134 123 120 123 126 124 120 104 89 85 75 65 58 55 52 52 50 51 53 55 58 62 66 67 71 74 82 85 84 80 78 77 73 69 69 73 71 68
136 122 120 126 124 127 108 95 85 78 67 58 55 50 48 46 45 46 51 53 57 62 68 69 72 79 86 92 89 84 81 77 76 76 72 73 72 70
131 122 126 129 121 108 97 88 79 69 59 53 50 46 42 41 38 40 45 49 55 58 68 72 76 82 88 92 91 88 85 82 80 80 78 75 75 73
126 125 126 122 108 96 88 81 71 61 54 48 43 42 39 36 34 36 40 46 50 56 67 75 77 82 84 89 91 89 88 88 87 87 84 81 79 77
132 130 120 110 97 88 80 72 63 55 48 43 41 38 36 34 33 33 35 43 50 56 65 73 79 81 87 89 88 90 90 87 87 89 91 87 85 84
129 124 112 102 91 82 72 65 57 50 42 41 37 34 32 30 30 31 34 39 47 57 63 69 75 82 85 89 89 90 92 92 89 86 88 94 94 89
122 118 107 94 82 75 66 59 52 44 39 37 33 29 27 27 26 28 32 36 43 55 62 66 73 80 85 87 93 92 93 92 91 91 90 89 90 94
119 109 99 88 78 68 60 53 48 40 37 33 29 26 25 24 23 24 27 32 39 47 56 63 67 76 82 86 90 94 93 93 94 92 94 98 96 95
110 99 92 83 72 61 57 50 44 38 35 29 27 24 23 21 18 20 23 27 35 42 51 61 68 73 81 85 87 91 90 90 93 94 95 97 98 101
101 92 86 76 65 56 53 47 42 36 33 27 25 22 20 20 15 15 17 23 31 38 48 56 63 71 73 80 84 87 92 91 90 93 96 97 99 98
94 87 78 70 58 53 48 45 40 36 31 26 23 21 18 19 17 15 15 18 25 33 42 50 56 66 73 75 75 78 85 91 97 94 93 94 95 96
88 79 70 62 52 49 45 42 37 34 31 26 21 21 19 20 19 17 15 16 21 28 34 40 50 60 70 74 78 79 79 79 81 84 86 88 87 87
81 71 62 54 47 45 43 39 35 32 30 27 24 21 22 22 20 19 17 17 19 23 27 32 39 44 53 61 65 67 68 68 66 62 58 54 53 50
70 62 55 48 43 42 41 37 33 31 29 28 27 27 24 25 23 24 22 23 23 21 21 26 29 32 36 40 40 39 40 38 40 42 41 42 43 44
61 54 50 44 41 41 38 36 32 30 30 29 31 31 31 29 24 27 29 29 29 27 23 25 30 32 31 29 34 37 40 41 44 47 45 45 46 45
53 50 46 41 40 40 35 33 31 29 30 31 33 35 33 32 28 29 31 32 31 33 32 30 34 36 37 35 33 33 35 40 44 47 48 48 47 48
49 46 43 41 39 37 33 31 30 29 29 31 35 39 39 36 36 33 33 38 37 36 38 39 39 42 43 39 39 38 38 41 44 50 51 50 52 52
45 43 41 40 37 34 32 29 29 28 28 30 34 40 44 44 43 40 38 38 37 37 41 44 42 42 44 46 48 47 47 50 50 52 51 55 59 58
42 41 40 39 36 32 31 30 28 27 27 30 33 36 42 46 48 49 48 46 45 46 45 46 45 48 53 54 53 53 53 55 57 56 58 60 61 66
41 41 40 38 35 33 30 29 29 27 26 29 32 38 43 45 49 53 52 53 53 53 51 50 49 49 53 50 53 57 57 59 60 58 60 63 65 68

GFSNE_250_spd_237.txt.gz
Wind_Speed
106 107 112 115 118 129 142 152 119 111 110 115 105 94 85 79 74 67 64 61 61 63 63 64 62 62 59 56 57 60 67 76 75 74 70 66 63 63
108 114 114 120 123 134 146 148 119 120 113 107 94 85 77 73 70 62 58 58 57 59 64 67 65 65 66 59 61 64 70 75 80 80 77 73 71 67
113 120 121 124 128 137 147 148 118 115 113 98 88 77 69 63 60 58 52 53 53 55 60 66 68 69 70 66 65 71 72 73 77 81 83 80 74 72
114 117 125 129 137 141 143 135 117 115 104 91 84 71 61 56 52 49 48 47 51 53 59 62 65 69 71 72 69 67 71 73 78 74 75 77 73 74
122 122 129 138 135 142 146 131 115 108 98 86 76 67 58 50 44 44 44 44 49 50 55 59 62 65 68 71 74 73 76 76 78 78 74 73 74 73
127 131 137 141 145 148 143 131 113 101 88 79 69 60 52 46 43 41 39 40 44 46 51 53 60 64 72 81 77 79 78 80 79 79 76 73 71 72
131 139 145 148 147 153 141 127 105 94 82 71 61 55 47 43 39 35 34 36 40 43 47 51 60 68 75 80 84 82 79 82 78 80 80 75 71 69
138 146 150 148 153 146 139 113 98 85 76 64 56 51 43 39 36 31 29 29 33 42 47 51 60 68 76 83 78 79 79 84 78 78 79 79 74 73
146 148 150 151 137 128 115 99 92 80 72 60 53 46 40 37 33 30 26 27 31 38 45 52 58 64 71 77 78 81 79 84 78 79 78 79 82 79
151 146 139 137 123 120 103 96 86 73 65 56 51 43 38 36 33 29 26 26 28 35 43 52 58 64 72 76 81 81 82 80 80 79 82 83 82 81
144 134 132 125 123 111 100 89 77 69 59 51 45 39 37 35 32 28 25 25 25 34 41 50 57 64 70 74 80 80 82 79 78 77 79 82 82 83
133 126 116 116 104 98 90 79 70 64 54 47 39 37 35 33 31 27 25 25 26 31 38 47 54 58 62 66 73 76 79 80 78 77 78 81 82 83
124 114 111 100 98 89 79 71 62 57 50 41 34 35 33 31 29 24 22 22 23 29 34 42 49 55 62 64 73 78 79 78 76 80 79 82 83 84
114 105 95 93 89 81 72 62 56 52 45 37 31 32 32 30 26 21 19 17 18 24 31 37 43 53 62 59 67 72 76 78 77 78 81 84 86 87
103 96 90 87 81 74 64 57 50 47 40 35 29 30 30 29 27 19 17 17 17 18 25 33 40 44 44 54 63 68 73 76 78 79 81 83 83 84
94 88 84 77 70 63 57 49 47 43 36 34 30 29 30 29 28 21 17 16 14 15 20 28 35 44 50 54 60 63 71 76 80 80 82 81 80 82
88 84 77 71 63 56 50 45 43 38 34 33 32 28 30 29 27 24 21 17 15 15 17 23 29 37 44 53 57 61 64 69 74 78 81 82 80 78
82 76 69 61 55 50 45 42 37 35 33 32 33 31 28 29 29 28 26 24 21 20 17 16 22 29 36 44 53 62 63 66 68 69 71 73 73 73
75 68 61 56 49 44 42 37 33 33 34 32 33 32 31 29 30 29 29 29 28 24 22 20 19 24 30 35 40 46 55 60 66 67 69 65 54 50
66 60 54 48 43 41 38 33 31 33 34 32 32 33 33 33 32 30 31 28 30 30 29 29 27 25 27 30 31 31 32 35 39 44 44 44 43 43
59 54 48 43 40 38 34 31 31 33 33 33 32 34 34 34 35 35 32 32 30 33 35 34 34 33 32 32 35 37 38 38 37 38 39 42 43 45
52 48 43 40 38 36 33 31 31 32 33 32 32 34 35 35 37 38 38 36 36 34 39 38 35 35 38 39 36 38 39 41 41 40 41 44 47 49
47 43 40 38 36 34 32 32 32 32 32 33 32 34 34 37 39 40 40 41 40 39 38 41 42 43 43 42 44 42 45 48 49 49 50 50 50 53

GFSNE_250_spd_243.txt.gz
Wind_Speed
83 86 94 103 104 102 103 108 108 108 103 103 107 116 122 124 128 106 95 95 89 81 73 64 60 55 58 56 54 55 60 63 55 52 47 55 70 74
76 84 90 95 97 103 108 114 118 117 110 112 120 121 121 127 119 101 94 90 81 73 60 57 49 47 51 51 54 56 64 59 52 49 39 52 68 74
86 92 94 102 100 106 113 118 118 117 120 119 121 129 125 124 114 96 91 82 73 61 54 48 44 39 44 49 54 63 70 72 61 54 58 54 68 69
94 98 100 105 106 113 117 118 119 121 125 124 128 130 127 120 106 97 85 72 63 55 46 44 40 36 40 46 54 66 74 75 70 71 70 74 68 66
96 100 104 108 114 113 109 103 115 121 122 128 130 128 122 111 94 86 79 68 60 50 42 38 36 34 36 43 54 66 71 76 74 71 68 75 72 70
98 102 107 110 111 108 111 113 118 125 128 134 129 127 116 101 88 83 76 65 53 45 38 34 34 32 35 41 55 71 78 78 77 75 78 79 70 71
103 98 107 109 111 112 115 117 121 124 132 129 126 114 106 90 82 78 71 57 47 40 36 33 30 31 36 42 54 69 78 80 83 84 78 77 69 69
101 108 114 110 123 119 116 119 124 126 127 126 111 101 90 83 78 70 60 50 43 38 34 30 27 29 34 42 52 67 73 77 85 85 84 77 71 70
115 115 120 122 130 123 123 125 126 127 128 119 110 96 85 78 72 64 56 44 40 36 32 28 27 28 34 42 49 60 73 81 84 89 87 84 78 72
124 126 130 134 135 129 128 132 126 130 124 110 94 83 81 73 66 58 47 39 36 33 30 25 24 27 36 44 51 67 77 82 85 89 88 86 83 74
125 129 134 134 139 132 131 128 131 124 109 94 87 82 76 67 59 51 40 36 33 30 28 25 23 27 37 46 55 70 74 75 84 86 90 87 84 76
134 135 135 137 142 136 131 134 134 109 108 91 82 73 69 59 53 44 37 34 32 28 25 23 22 26 38 48 57 68 73 76 81 82 85 87 85 77
139 142 142 142 141 139 139 142 130 112 93 83 74 70 59 52 46 39 33 32 29 24 25 22 23 24 34 46 54 59 67 69 77 78 84 85 85 79
140 140 143 142 137 138 140 138 125 98 86 74 68 62 53 44 42 35 31 30 26 24 23 23 22 23 30 40 49 55 59 61 67 76 81 83 86 83
140 142 140 141 142 141 138 120 107 87 76 66 64 54 45 40 37 32 30 28 25 23 22 21 22 25 28 36 46 50 55 57 58 70 75 79 84 83
143 144 140 139 141 132 123 98 88 77 69 62 56 48 40 36 33 31 29 26 24 22 22 21 23 26 31 35 40 48 55 58 57 61 68 76 82 83
143 143 142 142 131 121 101 90 82 71 63 57 51 42 35 33 31 30 29 25 23 22 22 21 21 26 29 33 38 45 48 54 57 62 66 69 81 81
143 142 138 132 112 98 91 82 74 65 56 51 44 38 31 30 30 29 28 25 22 23 22 21 21 23 25 32 38 43 47 54 57 65 68 65 74 78
120 114 108 101 95 87 77 72 65 59 52 44 40 34 28 28 30 28 27 25 23 24 24 22 20 22 26 28 37 42 50 54 58 64 66 64 67 74
90 88 85 83 78 74 67 62 57 53 44 39 36 30 27 27 28 27 26 25 25 25 25 24 19 19 20 24 31 39 45 50 55 59 60 61 63 64
76 74 72 69 66 62 57 54 50 44 40 36 32 29 26 25 26 26 25 25 26 27 28 26 22 21 18 18 25 31 39 45 48 50 56 59 61 62
65 63 62 58 56 54 50 47 43 38 36 33 30 28 26 25 24 25 26 26 26 28 31 28 27 25 21 18 20 28 34 41 47 51 56 58 57 61
55 54 52 49 47 46 43 40 36 34 33 31 29 27 25 25 23 25 26 26 27 30 32 32 31 31 28 26 23 23 27 34 41 47 53 59 60 58